| time (UTC) | temp F | wind direction | speed MPH | gust MPH | rain 1hr in | rain 24hr in | rain mn in | humidity % | barometer mb |
| 20260507183852 | 54 | 260 | 8.0 | 18.0 | 0.00 | 0.00 | 0.00 | 33 | 1009.0 |
| 20260507181905 | 54 | 336 | 8.0 | 16.0 | 0.00 | 0.00 | 0.00 | 30 | 1009.4 |
| 20260507180404 | 52 | 5 | 8.0 | 16.0 | 0.00 | 0.00 | 0.00 | 35 | 1009.5 |
| 20260507174900 | 52 | 288 | 7.0 | 19.0 | 0.00 | 0.00 | 0.00 | 34 | 1009.7 |
| 20260507172911 | 52 | 322 | 3.0 | 18.0 | 0.00 | 0.00 | 0.00 | 33 | 1009.9 |
| 20260507171403 | 51 | 332 | 8.0 | 15.0 | 0.00 | 0.00 | 0.00 | 34 | 1010.1 |
| 20260507165400 | 50 | 288 | 10.0 | 15.0 | 0.00 | 0.00 | 0.00 | 35 | 1010.2 |
| 20260507163407 | 48 | 263 | 7.0 | 14.0 | 0.00 | 0.00 | 0.00 | 40 | 1010.3 |
| 20260507161414 | 48 | 300 | 6.0 | 15.0 | 0.00 | 0.00 | 0.00 | 36 | 1010.5 |
| 20260507155402 | 47 | 260 | 10.0 | 16.0 | 0.00 | 0.00 | 0.00 | 44 | 1010.5 |
| 20260507153407 | 46 | 264 | 8.0 | 15.0 | 0.00 | 0.00 | 0.00 | 45 | 1010.7 |
| 20260507151858 | 45 | 281 | 11.0 | 16.0 | 0.00 | 0.00 | 0.00 | 47 | 1010.8 |
| 20260507150354 | 44 | 252 | 9.0 | 16.0 | 0.00 | 0.00 | 0.00 | 50 | 1010.8 |
| 20260507144407 | 43 | 238 | 11.0 | 15.0 | 0.00 | 0.00 | 0.00 | 52 | 1010.8 |
| 20260507142402 | 41 | 263 | 7.0 | 13.0 | 0.00 | 0.00 | 0.00 | 58 | 1010.8 |
| 20260507140408 | 39 | 246 | 6.0 | 10.0 | 0.00 | 0.00 | 0.00 | 63 | 1010.8 |
| 20260507134409 | 36 | 246 | 5.0 | 9.0 | 0.00 | 0.00 | 0.00 | 71 | 1010.6 |
| 20260507132903 | 34 | 229 | 4.0 | 8.0 | 0.00 | 0.00 | 0.00 | 75 | 1010.7 |
| 20260507130910 | 30 | 234 | 3.0 | 7.0 | 0.00 | 0.00 | 0.00 | 86 | 1010.6 |
| 20260507125405 | 27 | 217 | 2.0 | 4.0 | 0.00 | 0.00 | 0.00 | 90 | 1010.6 |
| 20260507123857 | 25 | 213 | 2.0 | 4.0 | 0.00 | 0.00 | 0.00 | 91 | 1010.5 |
| 20260507121911 | 23 | 212 | 0.0 | 2.0 | 0.00 | 0.00 | 0.00 | 91 | 1010.3 |
| 20260507115858 | 22 | 212 | 0.0 | 0.0 | 0.00 | 0.00 | 0.00 | 90 | 1010.3 |
| 20260507113910 | 22 | 211 | 0.0 | 0.0 | 0.00 | 0.00 | 0.00 | 91 | 1010.3 |
| 20260507112407 | 22 | 211 | 1.0 | 3.0 | 0.00 | 0.00 | 0.00 | 91 | 1010.2 |
| 20260507110858 | 21 | 211 | 1.0 | 3.0 | 0.00 | 0.00 | 0.00 | 91 | 1010.2 |
| 20260507104858 | 20 | 211 | 2.0 | 3.0 | 0.00 | 0.00 | 0.00 | 92 | 1010.2 |
| 20260507102854 | 20 | 211 | 2.0 | 4.0 | 0.00 | 0.00 | 0.00 | 91 | 1010.3 |
| 20260507101352 | 21 | 211 | 2.0 | 4.0 | 0.00 | 0.00 | 0.00 | 90 | 1010.4 |
| 20260507095410 | 23 | 217 | 2.0 | 3.0 | 0.00 | 0.00 | 0.00 | 92 | 1010.4 |
| 20260507093405 | 22 | 218 | 1.0 | 3.0 | 0.00 | 0.00 | 0.00 | 92 | 1010.6 |
| 20260507091905 | 21 | 218 | 0.0 | 3.0 | 0.00 | 0.00 | 0.00 | 92 | 1010.6 |
| 20260507085905 | 23 | 263 | 2.0 | 3.0 | 0.00 | 0.00 | 0.00 | 91 | 1010.7 |
| 20260507084359 | 24 | 263 | 0.0 | 0.0 | 0.00 | 0.00 | 0.00 | 92 | 1010.6 |
| 20260507082401 | 23 | 263 | 1.0 | 2.0 | 0.00 | 0.00 | 0.00 | 92 | 1010.5 |
| 20260507080410 | 23 | 260 | 1.0 | 3.0 | 0.00 | 0.00 | 0.00 | 92 | 1010.6 |
| 20260507074905 | 24 | 317 | 1.0 | 3.0 | 0.00 | 0.00 | 0.00 | 91 | 1010.6 |
| 20260507073238 | 25 | 306 | 0.0 | 0.0 | 0.00 | 0.00 | 0.00 | 91 | 1010.7 |
| 20260507071401 | 25 | 305 | 0.0 | 0.0 | 0.00 | 0.00 | 0.00 | 91 | 1010.7 |
| 20260507065410 | 25 | 300 | 0.0 | 0.0 | 0.00 | 0.00 | 0.00 | 90 | 1010.6 |
| 20260507063850 | 25 | 300 | 0.0 | 0.0 | 0.00 | 0.00 | 0.00 | 89 | 1010.6 |
| 20260507061905 | 26 | 294 | 0.0 | 0.0 | 0.00 | 0.00 | 0.00 | 89 | 1010.7 |
| 20260507055924 | 26 | 298 | 0.0 | 2.0 | 0.00 | 0.00 | 0.00 | 89 | 1010.5 |
| 20260507053906 | 25 | 315 | 0.0 | 0.0 | 0.00 | 0.00 | 0.00 | 87 | 1010.6 |
| 20260507051906 | 25 | 314 | 0.0 | 0.0 | 0.00 | 0.00 | 0.00 | 85 | 1010.7 |
| 20260507050405 | 26 | 314 | 0.0 | 0.0 | 0.00 | 0.00 | 0.00 | 82 | 1010.7 |
| 20260507044404 | 27 | 319 | 0.0 | 2.0 | 0.00 | 0.00 | 0.00 | 79 | 1010.9 |
| 20260507042407 | 30 | 343 | 0.0 | 0.0 | 0.00 | 0.00 | 0.00 | 70 | 1011.0 |
| 20260507040407 | 32 | 350 | 0.0 | 2.0 | 0.00 | 0.00 | 0.00 | 69 | 1011.1 |
| 20260507034412 | 33 | 350 | 1.0 | 3.0 | 0.00 | 0.00 | 0.00 | 68 | 1011.2 |
| 20260507032856 | 33 | 350 | 3.0 | 4.0 | 0.00 | 0.00 | 0.00 | 66 | 1011.2 |
| 20260507030914 | 33 | 350 | 3.0 | 4.0 | 0.00 | 0.00 | 0.00 | 60 | 1011.2 |
| 20260507025403 | 34 | 350 | 2.0 | 4.0 | 0.00 | 0.00 | 0.00 | 54 | 1011.4 |
| 20260507023859 | 36 | 349 | 2.0 | 3.0 | 0.00 | 0.00 | 0.00 | 50 | 1011.5 |
| 20260507021913 | 39 | 346 | 3.0 | 4.0 | 0.00 | 0.00 | 0.00 | 45 | 1011.4 |
| 20260507020405 | 41 | 348 | 2.0 | 5.0 | 0.00 | 0.00 | 0.00 | 43 | 1011.4 |
| 20260507014856 | 43 | 351 | 4.0 | 9.0 | 0.00 | 0.00 | 0.00 | 40 | 1011.5 |
| 20260507012905 | 44 | 328 | 8.0 | 13.0 | 0.00 | 0.00 | 0.00 | 39 | 1011.6 |
| 20260507010859 | 45 | 24 | 7.0 | 12.0 | 0.00 | 0.00 | 0.00 | 38 | 1011.6 |
| 20260507004906 | 46 | 325 | 10.0 | 14.0 | 0.00 | 0.00 | 0.00 | 37 | 1011.7 |
| 20260507002909 | 47 | 336 | 10.0 | 14.0 | 0.00 | 0.00 | 0.00 | 38 | 1011.8 |
| 20260507000905 | 48 | 325 | 11.0 | 15.0 | 0.00 | 0.00 | 0.00 | 37 | 1011.8 |
| 20260506234911 | 48 | 319 | 9.0 | 13.0 | 0.00 | 0.00 | 0.00 | 37 | 1012.0 |
| 20260506232857 | 48 | 324 | 7.0 | 12.0 | 0.00 | 0.00 | 0.00 | 39 | 1012.1 |
| 20260506230908 | 48 | 313 | 3.0 | 14.0 | 0.00 | 0.00 | 0.00 | 39 | 1012.2 |
| 20260506225407 | 48 | 271 | 11.0 | 16.0 | 0.00 | 0.00 | 0.00 | 39 | 1012.4 |
| 20260506222902 | 48 | 276 | 6.0 | 12.0 | 0.00 | 0.00 | 0.00 | 36 | 1012.5 |
| 20260506221401 | 48 | 336 | 7.0 | 10.0 | 0.00 | 0.00 | 0.00 | 39 | 1012.6 |
| 20260506215412 | 48 | 360 | 3.0 | 12.0 | 0.00 | 0.00 | 0.00 | 39 | 1012.9 |
| 20260506213406 | 47 | 307 | 10.0 | 15.0 | 0.00 | 0.00 | 0.00 | 41 | 1013.0 |
| 20260506211407 | 46 | 290 | 9.0 | 17.0 | 0.00 | 0.00 | 0.00 | 41 | 1013.5 |
| 20260506205856 | 46 | 274 | 11.0 | 17.0 | 0.00 | 0.00 | 0.00 | 41 | 1013.8 |
| 20260506203910 | 46 | 340 | 5.0 | 13.0 | 0.00 | 0.00 | 0.00 | 41 | 1014.1 |
| 20260506202401 | 46 | 257 | 6.0 | 11.0 | 0.00 | 0.00 | 0.00 | 43 | 1014.0 |
| 20260506200857 | 45 | 5 | 5.0 | 14.0 | 0.00 | 0.00 | 0.00 | 44 | 1014.1 |
| 20260506194915 | 44 | 309 | 7.0 | 14.0 | 0.00 | 0.00 | 0.00 | 46 | 1014.3 |
| 20260506192917 | 44 | 245 | 6.0 | 11.0 | 0.00 | 0.00 | 0.00 | 47 | 1014.5 |
| 20260506190356 | 44 | 321 | 3.0 | 14.0 | 0.00 | 0.00 | 0.00 | 47 | 1015.0 |